Flag for U.S.A. Weather past 2 weeks in Evansville, Indiana, U.S.A.

Now
65 °F

Sunny.


Feels Like: 65 °F
Forecast: 62 / 78 °F
Wind: 7 mph from Northwest

Location: Evansville Regional Airport

Current Time: Jul 28, 2014 at 6:43:31 AM

Latest Report: Jul 28, 2014 at 5:54 AM


Visibility: 10 mi

Pressure: 29.96 "Hg

Humidity: 81%

Dew point: 59 °F

Location of EvansvilleLocation

Historic Weather in Evansville — Graph

°F

Evansville temperature yesterday

Maximum temperature yesterday: 89 °F (at 2:54 PM)
Minimum temperature yesterday: 74 °F (at 12:54 AM)
Average temperature yesterday: 82 °F

Past Weeks' High & Low Weather Summary

 TemperatureHumidityPressure
High93 °F (Jul 13, 2:54 PM)97% (Jul 19, 4:54 AM)30.13 "Hg (Jul 19, 4:54 AM)
Low57 °F (Jul 16, 5:54 AM)32% (Jul 17, 1:54 PM)29.80 "Hg (Jul 27, 3:54 PM)
Average74 °F68%30.00 "Hg
* Reported Jul 13 5:54 AM — Jul 28 5:54 AM, Evansville, Weather by CustomWeather, © 2014

Note: Actual official high and low records may vary slightly from our data, if they occured in-between our weather recording intervals... More about our weather records

Advertising

Evansville weather history for previous 24 hours

 ConditionsComfort  
Time TempWeatherWind HumidityBarometerVisibility
5:54 AM
Jul 28
65 °FSunny.7 mph81%29.96 "Hg10 mi
4:54 AM66 °FClear.5 mph78%29.94 "Hg10 mi
3:54 AM67 °FClear.7 mph73%29.93 "Hg10 mi
2:54 AM68 °FClear.7 mph70%29.92 "Hg10 mi
1:54 AM69 °FClear.5 mph68%29.92 "Hg10 mi
12:54 AM71 °FClear.5 mph63%29.91 "Hg10 mi
11:54 PM
Jul 27
74 °FClear.8 mph56%29.90 "Hg10 mi
10:54 PM75 °FClear.7 mph58%29.89 "Hg10 mi
9:54 PM78 °FClear.13 mph54%29.87 "Hg10 mi
8:54 PM81 °FClear.6 mph49%29.86 "Hg10 mi
7:54 PM84 °FPassing clouds.8 mph53%29.83 "Hg10 mi
6:54 PM87 °FPassing clouds.13 mph50%29.81 "Hg10 mi
5:54 PM88 °FSunny.10 mph48%29.80 "Hg10 mi
4:54 PM89 °FSunny.10 mph46%29.80 "Hg10 mi
3:54 PM89 °FScattered clouds.12 mph52%29.80 "Hg10 mi
2:54 PM89 °FScattered clouds.14 mph59%29.81 "Hg10 mi
1:54 PM88 °FBroken clouds.13 mph63%29.81 "Hg10 mi
12:54 PM87 °FBroken clouds.14 mph67%29.81 "Hg10 mi
11:54 AM85 °FOvercast.13 mph72%29.82 "Hg10 mi
10:54 AM85 °FMostly cloudy.13 mph72%29.82 "Hg10 mi
9:54 AM84 °FOvercast.13 mph74%29.82 "Hg10 mi
8:54 AM82 °FPartly sunny.16 mph82%29.83 "Hg6 mi
7:54 AM79 °FFog.12 mph88%29.83 "Hg6 mi
6:54 AM78 °FFog.9 mph90%29.83 "Hg5 mi
Weather by CustomWeather, © 2014

See weather overviewHow to use our weather pages